Weather History for Manistique, MI

Change the Weather History Date:

Saturday, June 7, 2014

  Actual Average Record
Temperature  
Mean Temperature 54 °F -  
Max Temperature 65 °F 68 °F 84 °F (2011)
Min Temperature 43 °F 46 °F 31 °F (1958)
Degree Days  
Heating Degree Days 11    
Growing Degree Days 4 (Base 50)    
Moisture  
Dew Point 46 °F    
Average Humidity 76    
Maximum Humidity 91    
Minimum Humidity 56    
Precipitation  
Precipitation 0.00 in - - ()
Sea Level Pressure  
Sea Level Pressure 29.96 in    
Wind  
Wind Speed 4 mph (South)    
Max Wind Speed 15 mph    
Max Gust Speed 25 mph    
Visibility 10 miles    
Events      
Averages and records for this station are not official NWS values.
T = Trace of Precipitation, MM = Missing Value Source: NWS Daily Summary

Daily Weather History Graph

Daily Weather History Graph

Search for Another Location

Airport:

Trip Planner

Search our weather history database for the weather conditions in past years. The results will help you decide how hot, cold, wet, or windy it might be!

Date:

Astronomy

Jun. 07, 2014 Rise Set
Actual Time 5:54 AM EDT 9:32 PM EDT
Civil Twilight 5:16 AM EDT 10:10 PM EDT
Nautical Twilight 4:26 AM EDT 11:01 PM EDT
Astronomical Twilight 3:18 AM EDT 12:10 AM EDT
Moon 3:32 PM EDT (6/7) 2:34 AM EDT (6/7)
Length of Visible Light 16h 53m
Length of Day
15h 37m
Waxing Gibbous, 67% of the Moon is Illuminated
Jun 7
Waxing Gibbous
Jun 13
Full
Jun 19
Last Quarter
Jun 27
New
Jul 5
First Quarter

Hourly Weather History & Observations

Time (EDT) Temp. Windchill Dew Point Humidity Pressure Visibility Wind Dir Wind Speed Gust Speed Precip Events Conditions
12:14 AM 46.0 °F - 41.9 °F 85% 29.98 in 10.0 mi Calm Calm - N/A   Clear
12:35 AM 45.9 °F - 41.5 °F 85% 29.98 in 10.0 mi Calm Calm - N/A   Clear
12:54 AM 45.9 °F - 41.9 °F 86% 29.98 in 10.0 mi North - - N/A   Clear
1:15 AM 45.7 °F - 41.9 °F 87% 29.98 in 10.0 mi Calm Calm - N/A   Clear
1:34 AM 44.8 °F - 41.7 °F 89% 29.98 in 10.0 mi Calm Calm - N/A   Clear
1:55 AM 44.6 °F - 41.2 °F 88% 29.98 in 10.0 mi Calm Calm - N/A   Clear
2:14 AM 44.6 °F 43.1 °F 41.2 °F 88% 29.98 in 10.0 mi SSE 3.5 mph - N/A   Clear
2:35 AM 45.0 °F - 41.2 °F 87% 29.98 in 10.0 mi Calm Calm - N/A   Clear
2:55 AM 44.6 °F 43.1 °F 41.2 °F 88% 29.98 in 10.0 mi SE 3.5 mph - N/A   Clear
3:14 AM 44.8 °F - 41.4 °F 88% 29.97 in 10.0 mi Calm Calm - N/A   Clear
3:35 AM 44.8 °F - 41.0 °F 87% 29.97 in 10.0 mi Calm Calm - N/A   Clear
3:55 AM 45.1 °F 43.7 °F 41.7 °F 88% 29.97 in 10.0 mi SE 3.5 mph - N/A   Clear
4:14 AM 44.6 °F 42.2 °F 41.5 °F 89% 29.97 in 10.0 mi SE 4.6 mph - N/A   Clear
4:35 AM 44.4 °F 41.2 °F 41.4 °F 89% 29.97 in 10.0 mi SSE 5.8 mph - N/A   Clear
4:55 AM 44.6 °F 41.4 °F 41.0 °F 87% 29.95 in 10.0 mi SE 5.8 mph - N/A   Clear
5:14 AM 44.4 °F 42.0 °F 40.6 °F 87% 29.96 in 10.0 mi SSE 4.6 mph - N/A   Clear
5:35 AM 43.9 °F 41.3 °F 40.5 °F 88% 29.97 in 10.0 mi SSE 4.6 mph - N/A   Clear
5:54 AM 44.2 °F - 40.1 °F 85% 29.99 in 10.0 mi Calm Calm - N/A   Clear
6:15 AM 44.2 °F - 40.1 °F 85% 29.99 in 10.0 mi Calm Calm - N/A   Clear
6:35 AM 44.6 °F - 40.8 °F 87% 30.00 in 10.0 mi Calm Calm - N/A   Clear
6:54 AM 46.2 °F 45.0 °F 41.5 °F 84% 30.00 in 10.0 mi SSE 3.5 mph - N/A   Clear
7:15 AM 47.3 °F - 41.5 °F 80% 30.01 in 10.0 mi SSE 4.6 mph - N/A   Clear
7:35 AM 48.4 °F - 41.9 °F 78% 30.00 in 10.0 mi SSE 5.8 mph - N/A   Scattered Clouds
8:15 AM 49.6 °F - 41.5 °F 74% 30.00 in 10.0 mi South 4.6 mph - N/A   Clear
9:15 AM 53.4 °F - 43.2 °F 68% 29.99 in 10.0 mi Calm Calm - N/A   Clear
9:34 AM 54.5 °F - 43.7 °F 67% 29.98 in 10.0 mi SSE 4.6 mph - N/A   Clear
9:55 AM 54.9 °F - 44.1 °F 67% 29.99 in 10.0 mi SSE 4.6 mph - N/A   Clear
10:15 AM 55.9 °F - 44.6 °F 66% 29.98 in 10.0 mi South 5.8 mph - N/A   Clear
10:34 AM 57.2 °F - 45.5 °F 65% 29.97 in 10.0 mi SSE 5.8 mph - N/A   Clear
10:55 AM 56.3 °F - 45.1 °F 66% 29.97 in 10.0 mi SSE 4.6 mph - N/A   Clear
11:15 AM 56.7 °F - 45.1 °F 65% 29.98 in 10.0 mi South 6.9 mph - N/A   Clear
11:34 AM 55.2 °F - 44.8 °F 68% 29.98 in 10.0 mi SSE 8.1 mph - N/A   Mostly Cloudy
11:55 AM 57.7 °F - 46.2 °F 65% 29.98 in 10.0 mi South 8.1 mph - N/A   Mostly Cloudy
12:14 PM 58.3 °F - 46.0 °F 64% 29.98 in 10.0 mi North - - N/A   Scattered Clouds
12:35 PM 57.7 °F - 45.5 °F 64% 29.98 in 10.0 mi South 8.1 mph 18.4 mph N/A   Clear
12:55 PM 57.9 °F - 45.5 °F 63% 29.98 in 10.0 mi South 9.2 mph 19.6 mph N/A   Clear
1:14 PM 59.7 °F - 46.2 °F 61% 29.97 in 10.0 mi South 9.2 mph - N/A   Scattered Clouds
1:35 PM 58.8 °F - 45.3 °F 61% 29.96 in 10.0 mi South 13.8 mph 20.7 mph N/A   Mostly Cloudy
1:54 PM 58.5 °F - 45.3 °F 62% 29.96 in 10.0 mi South 11.5 mph 24.2 mph N/A   Scattered Clouds
2:15 PM 58.8 °F - 45.9 °F 62% 29.95 in 10.0 mi South 11.5 mph 25.3 mph N/A   Mostly Cloudy
2:34 PM 59.2 °F - 45.9 °F 61% 29.95 in 10.0 mi South 15.0 mph 24.2 mph N/A   Scattered Clouds
2:55 PM 59.5 °F - 45.3 °F 59% 29.94 in 10.0 mi South 11.5 mph 20.7 mph N/A   Scattered Clouds
3:15 PM 59.0 °F - 45.1 °F 60% 29.94 in 10.0 mi South 9.2 mph - N/A   Mostly Cloudy
3:34 PM 58.6 °F - 45.9 °F 63% 29.94 in 10.0 mi SSW 5.8 mph - N/A   Mostly Cloudy
3:55 PM 60.6 °F - 46.4 °F 59% 29.94 in 10.0 mi SSW 5.8 mph - N/A   Mostly Cloudy
4:15 PM 65.1 °F - 48.9 °F 56% 29.94 in 10.0 mi North - - N/A   Scattered Clouds
4:34 PM 65.7 °F - 53.8 °F 65% 29.93 in 10.0 mi NNW 10.4 mph 16.1 mph N/A   Clear
4:55 PM 64.0 °F - 53.2 °F 68% 29.93 in 10.0 mi NNW 5.8 mph - N/A   Scattered Clouds
5:15 PM 64.9 °F - 54.1 °F 68% 29.93 in 10.0 mi NNW 9.2 mph - N/A   Scattered Clouds
5:34 PM 63.5 °F - 53.1 °F 69% 29.93 in 10.0 mi NNW 13.8 mph - N/A   Clear
5:55 PM 63.1 °F - 53.2 °F 70% 29.93 in 10.0 mi NW 10.4 mph 18.4 mph N/A   Clear
6:14 PM 62.2 °F - 52.2 °F 70% 29.93 in 10.0 mi NNW 9.2 mph - N/A   Clear
6:35 PM 61.5 °F - 52.0 °F 71% 29.93 in 10.0 mi NNW 11.5 mph 16.1 mph N/A   Clear
6:55 PM 61.0 °F - 52.2 °F 73% 29.94 in 10.0 mi NNW 11.5 mph 16.1 mph N/A   Clear
7:14 PM 60.8 °F - 52.7 °F 75% 29.94 in 10.0 mi NNW 11.5 mph 16.1 mph N/A   Clear
7:35 PM 58.8 °F - 52.0 °F 78% 29.93 in 10.0 mi NNW 12.7 mph 16.1 mph N/A   Clear
7:54 PM 58.1 °F - 51.8 °F 80% 29.94 in 10.0 mi NNW 9.2 mph - N/A   Clear
8:15 PM 57.4 °F - 51.4 °F 81% 29.95 in 10.0 mi NW 9.2 mph 17.3 mph N/A   Clear
8:35 PM 56.5 °F - 50.5 °F 80% 29.95 in 10.0 mi NNW 8.1 mph 16.1 mph N/A   Clear
8:54 PM 55.4 °F - 50.0 °F 82% 29.95 in 10.0 mi North 8.1 mph 17.3 mph N/A   Clear
9:15 PM 55.0 °F - 50.0 °F 83% 29.95 in 10.0 mi North 5.8 mph - N/A   Clear
9:34 PM 54.3 °F - 49.6 °F 84% 29.94 in 10.0 mi North 6.9 mph - N/A   Clear
9:55 PM 53.6 °F - 49.3 °F 85% 29.93 in 10.0 mi North 8.1 mph - N/A   Clear
10:15 PM 53.6 °F - 49.5 °F 86% 29.95 in 10.0 mi North 8.1 mph - N/A   Clear
10:34 PM 53.2 °F - 49.5 °F 87% 29.95 in 10.0 mi North 9.2 mph - N/A   Clear
10:55 PM 53.1 °F - 49.5 °F 88% 29.97 in 10.0 mi North 8.1 mph - N/A   Scattered Clouds
11:15 PM 52.7 °F - 49.5 °F 89% 29.96 in 10.0 mi North 9.2 mph - N/A   Mostly Cloudy
11:34 PM 52.2 °F - 49.5 °F 91% 29.97 in 10.0 mi NNW 11.5 mph 18.4 mph N/A   Mostly Cloudy
11:55 PM 52.2 °F - 49.5 °F 91% 29.97 in 10.0 mi NNW 12.7 mph 17.3 mph N/A   Mostly Cloudy